Crane Lake, MN

7:47 PM CST on February 19, 2017 (GMT -0600)
Crane Lake

Weather History for KCDD - March, 2014

Change the Weather History Date:

Saturday, March 29, 2014

  Actual Average Record
Temperature  
Mean Temperature 19 °F -  
Max Temperature 42 °F 38 °F 60 °F (2005)
Min Temperature -4 °F 20 °F -4 °F (2014)
Degree Days  
Heating Degree Days 46    
Moisture  
Dew Point 4 °F    
Average Humidity 51    
Maximum Humidity 79    
Minimum Humidity 24    
Precipitation  
Precipitation 0.00 in - - ()
Sea Level Pressure  
Sea Level Pressure 30.17 in    
Wind  
Wind Speed 2 mph (SSE)    
Max Wind Speed 12 mph    
Max Gust Speed 20 mph    
Visibility 10 miles    
Events      
Averages and records for this station are not official NWS values.
T = Trace of Precipitation, MM = Missing Value Source: NWS Daily Summary

Daily Weather History Graph

Daily Weather History Graph

Search for Another Location

Airport or City:

Trip Planner

Search our weather history database for the weather conditions in past years. The results will help you decide how hot, cold, wet, or windy it might be!

Date:

Astronomy

Mar. 29, 2014 Rise Set
Actual Time 6:54 AM CDT 7:36 PM CDT
Civil Twilight 6:22 AM CDT 8:07 PM CDT
Nautical Twilight 5:45 AM CDT 8:45 PM CDT
Astronomical Twilight 5:06 AM CDT 9:24 PM CDT
Moon 6:08 AM CDT (3/29) 6:39 PM CDT (3/29)
Length of Visible Light 13h 44m
Length of Day
12h 41m
Waning Crescent, 2% of the Moon is Illuminated
Mar 29
Waning Crescent
Mar 30
New
Apr 7
First Quarter
Apr 15
Full
Apr 22
Last Quarter

Hourly Weather History & Observations

Time (CDT) Temp. Windchill Dew Point Humidity Pressure Visibility Wind Dir Wind Speed Gust Speed Precip Events Conditions
12:08 AM 6.8 °F - -2.2 °F 67% 30.24 in 10.0 mi Calm Calm - N/A   Clear
12:28 AM 5.0 °F - -4.0 °F 66% 30.25 in 10.0 mi Calm Calm - N/A   Clear
12:48 AM 3.2 °F - -4.0 °F 72% 30.25 in 10.0 mi Calm Calm - N/A   Clear
1:08 AM 3.2 °F - -4.0 °F 72% 30.25 in 10.0 mi Calm Calm - N/A   Clear
1:28 AM 3.2 °F - -4.0 °F 72% 30.25 in 10.0 mi Calm Calm - N/A   Clear
1:48 AM 3.2 °F - -4.0 °F 72% 30.26 in 10.0 mi Calm Calm - N/A   Scattered Clouds
2:08 AM 1.4 °F - -5.8 °F 72% 30.26 in 10.0 mi Calm Calm - N/A   Scattered Clouds
2:28 AM 1.4 °F - -5.8 °F 72% 30.26 in 10.0 mi Calm Calm - N/A   Scattered Clouds
2:48 AM -0.4 °F - -7.6 °F 72% 30.26 in 10.0 mi Calm Calm - N/A   Clear
3:08 AM -2.2 °F - -9.4 °F 71% 30.26 in 10.0 mi Calm Calm - N/A   Clear
3:28 AM -2.2 °F - -9.4 °F 71% 30.27 in 10.0 mi Calm Calm - N/A   Clear
3:48 AM -4.0 °F - -11.2 °F 71% 30.27 in 10.0 mi Calm Calm - N/A   Clear
4:08 AM -4.0 °F - -9.4 °F 78% 30.27 in 10.0 mi Calm Calm - N/A   Scattered Clouds
4:28 AM -2.2 °F - -7.6 °F 78% 30.27 in 10.0 mi Calm Calm - N/A   Overcast
4:48 AM -2.2 °F - -7.6 °F 78% 30.27 in 10.0 mi Calm Calm - N/A   Overcast
5:08 AM -0.4 °F - -5.8 °F 78% 30.27 in 10.0 mi Calm Calm - N/A   Overcast
5:28 AM 1.4 °F - -5.8 °F 72% 30.27 in 10.0 mi Calm Calm - N/A   Overcast
5:48 AM 1.4 °F - -4.0 °F 78% 30.27 in 10.0 mi Calm Calm - N/A   Overcast
6:08 AM 1.4 °F - -4.0 °F 78% 30.27 in 10.0 mi Calm Calm - N/A   Overcast
6:28 AM 1.4 °F - -4.0 °F 78% 30.28 in 10.0 mi Calm Calm - N/A   Overcast
6:48 AM 1.4 °F - -5.8 °F 72% 30.28 in 10.0 mi Calm Calm - N/A   Overcast
7:08 AM 1.4 °F - -5.8 °F 72% 30.28 in 10.0 mi Calm Calm - N/A   Overcast
7:28 AM 1.4 °F - -4.0 °F 78% 30.28 in 10.0 mi Calm Calm - N/A   Overcast
7:48 AM 3.2 °F - -2.2 °F 78% 30.28 in 10.0 mi Calm Calm - N/A   Overcast
8:08 AM 5.0 °F - -0.4 °F 78% 30.28 in 10.0 mi Calm Calm - N/A   Overcast
8:28 AM 8.6 °F - 3.2 °F 79% 30.28 in 10.0 mi Calm Calm - N/A   Overcast
8:48 AM 12.2 °F - 6.8 °F 79% 30.28 in 10.0 mi Calm Calm - N/A   Overcast
9:08 AM 15.8 °F - 8.6 °F 73% 30.27 in 10.0 mi Calm Calm - N/A   Overcast
9:28 AM 17.6 °F - 8.6 °F 68% 30.27 in 10.0 mi Calm Calm - N/A   Overcast
9:48 AM 21.2 °F - 10.4 °F 63% 30.26 in 10.0 mi Calm Calm - N/A   Overcast
10:08 AM 24.8 °F 20.5 °F 12.2 °F 59% 30.26 in 10.0 mi South 3.5 mph - N/A   Overcast
10:28 AM 30.2 °F 26.7 °F 6.8 °F 37% 30.25 in 10.0 mi South 3.5 mph - N/A   Overcast
10:48 AM 32.0 °F 26.4 °F 3.2 °F 30% 30.24 in 10.0 mi SSW 5.8 mph - N/A   Overcast
11:08 AM 33.8 °F 28.6 °F 1.4 °F 25% 30.24 in 10.0 mi South 5.8 mph - N/A   Overcast
11:28 AM 33.8 °F 27.7 °F 1.4 °F 25% 30.23 in 10.0 mi South 6.9 mph - N/A   Overcast
11:48 AM 35.6 °F 29.2 °F 1.4 °F 24% 30.23 in 10.0 mi South 8.1 mph - N/A   Overcast
12:08 PM 35.6 °F 29.9 °F 1.4 °F 24% 30.22 in 10.0 mi South 6.9 mph - N/A   Overcast
12:28 PM 35.6 °F 32.8 °F 3.2 °F 26% 30.20 in 10.0 mi SSE 3.5 mph - N/A   Mostly Cloudy
12:48 PM 37.4 °F 32.8 °F 3.2 °F 24% 30.20 in 10.0 mi South 5.8 mph - N/A   Scattered Clouds
1:08 PM 37.4 °F 30.8 °F 3.2 °F 24% 30.19 in 10.0 mi South 9.2 mph - N/A   Clear
1:28 PM 39.2 °F 35.0 °F 5.0 °F 24% 30.18 in 10.0 mi South 5.8 mph - N/A   Scattered Clouds
1:48 PM 39.2 °F 35.0 °F 6.8 °F 26% 30.16 in 10.0 mi SW 5.8 mph - N/A   Scattered Clouds
2:08 PM 39.2 °F 33.6 °F 8.6 °F 28% 30.15 in 10.0 mi SSE 8.1 mph - N/A   Clear
2:28 PM 41.0 °F 37.1 °F 10.4 °F 29% 30.14 in 10.0 mi South 5.8 mph - N/A   Clear
2:48 PM 42.8 °F 38.6 °F 10.4 °F 27% 30.13 in 10.0 mi South 6.9 mph - N/A   Clear
3:08 PM 42.8 °F 39.3 °F 8.6 °F 25% 30.12 in 10.0 mi SSE 5.8 mph - N/A   Clear
3:28 PM 42.8 °F 39.3 °F 8.6 °F 25% 30.11 in 10.0 mi South 5.8 mph 9.2 mph N/A   Clear
3:48 PM 42.8 °F 37.5 °F 8.6 °F 25% 30.10 in 10.0 mi SSW 9.2 mph - N/A   Clear
4:08 PM 42.8 °F 37.5 °F 8.6 °F 25% 30.10 in 10.0 mi SSE 9.2 mph 16.1 mph N/A   Clear
4:28 PM 42.8 °F 37.5 °F 8.6 °F 25% 30.09 in 10.0 mi SE 9.2 mph 16.1 mph N/A   Mostly Cloudy
4:48 PM 42.8 °F 37.5 °F 10.4 °F 27% 30.09 in 10.0 mi South 9.2 mph - N/A   Overcast
5:08 PM 42.8 °F 38.0 °F 10.4 °F 27% 30.07 in 10.0 mi South 8.1 mph - N/A   Overcast
5:28 PM 39.2 °F 33.6 °F 10.4 °F 31% 30.06 in 10.0 mi SSE 8.1 mph - N/A   Overcast
5:48 PM 39.2 °F 35.0 °F 10.4 °F 31% 30.05 in 10.0 mi SSE 5.8 mph - N/A   Overcast
6:08 PM 41.0 °F 35.8 °F 12.2 °F 31% 30.04 in 10.0 mi SSE 8.1 mph 17.3 mph N/A   Overcast
6:28 PM 39.2 °F 33.6 °F 12.2 °F 33% 30.04 in 10.0 mi SSE 8.1 mph - N/A   Overcast
6:48 PM 39.2 °F 33.6 °F 14.0 °F 36% 30.03 in 10.0 mi South 8.1 mph 16.1 mph N/A   Overcast
7:08 PM 37.4 °F 32.1 °F 12.2 °F 36% 30.03 in 10.0 mi SSE 6.9 mph - N/A   Overcast
7:28 PM 35.6 °F 31.7 °F 12.2 °F 38% 30.02 in 10.0 mi SSE 4.6 mph - N/A   Overcast
7:48 PM 35.6 °F 32.8 °F 14.0 °F 41% 30.02 in 10.0 mi SSE 3.5 mph - N/A   Overcast
8:08 PM 33.8 °F 28.6 °F 15.8 °F 48% 30.01 in 10.0 mi SE 5.8 mph - N/A   Overcast
8:28 PM 33.8 °F 27.0 °F 15.8 °F 48% 30.01 in 10.0 mi SSE 8.1 mph - N/A   Mostly Cloudy
8:48 PM 33.8 °F 28.6 °F 14.0 °F 44% 30.00 in 10.0 mi SSE 5.8 mph - N/A   Mostly Cloudy
9:08 PM 33.8 °F 27.0 °F 14.0 °F 44% 29.99 in 10.0 mi SSE 8.1 mph - N/A   Overcast
9:28 PM 33.8 °F 26.4 °F 15.8 °F 48% 29.99 in 10.0 mi SSE 9.2 mph - N/A   Overcast
9:48 PM 33.8 °F 27.0 °F 15.8 °F 48% 29.98 in 10.0 mi SSE 8.1 mph - N/A   Overcast
10:08 PM 33.8 °F 25.3 °F 15.8 °F 48% 29.99 in 10.0 mi SSE 11.5 mph 17.3 mph N/A   Overcast
10:28 PM 33.8 °F 26.4 °F 15.8 °F 48% 29.98 in 10.0 mi SSE 9.2 mph - N/A   Overcast
10:48 PM 33.8 °F 27.7 °F 15.8 °F 48% 29.98 in 10.0 mi SSE 6.9 mph - N/A   Overcast
11:08 PM 32.0 °F 24.2 °F 15.8 °F 51% 29.98 in 10.0 mi SSE 9.2 mph 19.6 mph N/A   Mostly Cloudy
11:28 PM 30.2 °F 23.4 °F 14.0 °F 51% 29.98 in 10.0 mi South 6.9 mph - N/A   Clear
11:48 PM 30.2 °F 23.4 °F 14.0 °F 51% 29.99 in 10.0 mi SSE 6.9 mph - N/A   Mostly Cloudy